Macomb, IL

2:38 PM CDT on October 18, 2017 (GMT -0500)
Macomb Municipal

Weather History for KMQB - September, 2013

Change the Weather History Date:

Thursday, September 19, 2013

  Actual Average (KBRL) Record (KBRL)
Temperature  
Mean Temperature 81 °F -  
Max Temperature 94 °F 69 °F 94 °F (1948)
Min Temperature 68 °F 51 °F 33 °F (1991)
Cooling Degree Days 16    
Growing Degree Days 31 (Base 50)    
Moisture  
Dew Point 67 °F    
Average Humidity 67    
Maximum Humidity 98    
Minimum Humidity 37    
Precipitation  
Precipitation 1.38 in - - ()
Sea Level Pressure  
Sea Level Pressure 29.91 in    
Wind  
Wind Speed 9 mph (SSW)    
Max Wind Speed 24 mph    
Max Gust Speed 31 mph    
Visibility 9 miles    
Events Rain , Thunderstorm    
Averages and records for this station are not official NWS values.
T = Trace of Precipitation, MM = Missing Value Source: NWS Daily Summary

Daily Weather History Graph

Daily Weather History Graph

Search for Another Location

Airport or City:

Trip Planner

Search our weather history database for the weather conditions in past years. The results will help you decide how hot, cold, wet, or windy it might be!

Date:

Astronomy

Sep. 19, 2013 Rise Set
Actual Time 6:47 AM CDT 7:04 PM CDT
Civil Twilight 6:20 AM CDT 7:31 PM CDT
Nautical Twilight 5:48 AM CDT 8:03 PM CDT
Astronomical Twilight 5:15 AM CDT 8:36 PM CDT
Moon 7:02 PM CDT (9/19) 6:57 AM CDT (9/19)
Length of Visible Light 13h 11m
Length of Day
12h 16m
Full, 100% of the Moon is Illuminated
Sep 19
Full
Sep 26
Last Quarter
Oct 4
New
Oct 11
First Quarter
Oct 18
Full

Hourly Weather History & Observations

Time (CDT) Temp. Heat Index Dew Point Humidity Pressure Visibility Wind Dir Wind Speed Gust Speed Precip Events Conditions
12:15 AM 77.0 °F - 68.5 °F 75% 29.95 in 10.0 mi South 10.4 mph - N/A   Overcast
12:35 AM 77.0 °F - 68.5 °F 75% 29.95 in 10.0 mi South 9.2 mph - N/A   Overcast
12:55 AM 76.6 °F - 68.7 °F 76% 29.95 in 10.0 mi South 6.9 mph - N/A   Overcast
1:15 AM 76.3 °F - 68.7 °F 77% 29.95 in 10.0 mi South 5.8 mph - N/A   Overcast
1:35 AM 76.3 °F - 68.9 °F 78% 29.96 in 10.0 mi South 6.9 mph - N/A   Overcast
1:55 AM 76.1 °F - 68.9 °F 78% 29.96 in 10.0 mi South 8.1 mph - N/A   Overcast
2:15 AM 75.9 °F - 68.9 °F 79% 29.96 in 10.0 mi South 5.8 mph - N/A   Overcast
2:35 AM 75.6 °F - 68.9 °F 80% 29.95 in 10.0 mi South 5.8 mph - N/A   Mostly Cloudy
2:55 AM 75.2 °F - 68.9 °F 81% 29.95 in 10.0 mi South 5.8 mph - N/A   Scattered Clouds
3:15 AM 74.8 °F - 68.9 °F 82% 29.95 in 10.0 mi South 5.8 mph - N/A   Mostly Cloudy
3:35 AM 74.3 °F - 68.7 °F 83% 29.95 in 10.0 mi South 6.9 mph - N/A   Scattered Clouds
3:55 AM 74.3 °F - 68.9 °F 83% 29.94 in 10.0 mi South 6.9 mph - N/A   Clear
4:15 AM 73.8 °F - 68.5 °F 84% 29.94 in 10.0 mi South 6.9 mph - N/A   Scattered Clouds
4:35 AM 74.1 °F - 68.5 °F 83% 29.94 in 10.0 mi South 6.9 mph - N/A   Clear
4:55 AM 73.6 °F - 68.4 °F 84% 29.94 in 10.0 mi South 5.8 mph - N/A   Clear
5:15 AM 73.2 °F - 68.4 °F 85% 29.94 in 10.0 mi South 5.8 mph - N/A   Clear
5:35 AM 73.0 °F - 68.5 °F 86% 29.94 in 10.0 mi South 5.8 mph - N/A   Clear
5:55 AM 73.2 °F - 68.5 °F 85% 29.94 in 10.0 mi South 5.8 mph - N/A   Clear
6:15 AM 73.4 °F - 68.5 °F 85% 29.94 in 10.0 mi South 4.6 mph - N/A   Clear
6:35 AM 73.0 °F - 68.5 °F 86% 29.94 in 10.0 mi South 4.6 mph - N/A   Scattered Clouds
6:55 AM 72.9 °F - 68.5 °F 86% 29.94 in 10.0 mi South 6.9 mph - N/A   Scattered Clouds
7:15 AM 73.4 °F - 68.7 °F 85% 29.94 in 10.0 mi South 8.1 mph - N/A   Clear
7:35 AM 73.6 °F - 68.7 °F 85% 29.94 in 7.0 mi South 8.1 mph - N/A   Clear
7:55 AM 75.0 °F - 68.9 °F 81% 29.94 in 10.0 mi South 10.4 mph - N/A   Clear
8:15 AM 76.3 °F - 68.9 °F 78% 29.94 in 10.0 mi SSW 11.5 mph - N/A   Clear
8:35 AM 77.9 °F - 68.7 °F 73% 29.94 in 10.0 mi SSW 11.5 mph - N/A   Clear
8:55 AM 79.0 °F - 68.4 °F 70% 29.94 in 10.0 mi SSW 10.4 mph 20.7 mph N/A   Clear
9:15 AM 80.1 °F 82.7 °F 68.4 °F 67% 29.95 in 10.0 mi SSW 15.0 mph 21.9 mph N/A   Clear
9:35 AM 81.5 °F 84.6 °F 68.7 °F 65% 29.95 in 10.0 mi SW 10.4 mph 17.3 mph N/A   Clear
9:55 AM 83.3 °F 86.6 °F 68.7 °F 61% 29.94 in 10.0 mi SW 12.7 mph 17.3 mph N/A   Clear
10:15 AM 84.2 °F 87.3 °F 68.2 °F 58% 29.94 in 10.0 mi SSW 15.0 mph - N/A   Clear
10:35 AM 84.9 °F 88.2 °F 68.2 °F 57% 29.94 in 10.0 mi SSW 12.7 mph 20.7 mph N/A   Clear
10:55 AM 86.9 °F 89.9 °F 67.5 °F 52% 29.94 in 10.0 mi SW 15.0 mph 19.6 mph N/A   Clear
11:15 AM 88.9 °F 92.2 °F 67.3 °F 49% 29.94 in 10.0 mi SW 15.0 mph 19.6 mph N/A   Clear
11:35 AM 89.1 °F 91.3 °F 66.0 °F 46% 29.93 in 10.0 mi SW 15.0 mph 19.6 mph N/A   Clear
11:55 AM 89.4 °F 91.5 °F 65.7 °F 45% 29.93 in 10.0 mi SSW 13.8 mph 19.6 mph N/A   Clear
12:15 PM 90.5 °F 92.5 °F 65.3 °F 43% 29.93 in 10.0 mi SW 15.0 mph 19.6 mph N/A   Clear
12:35 PM 92.7 °F 94.9 °F 64.8 °F 40% 29.92 in 10.0 mi SSW 13.8 mph 19.6 mph N/A   Clear
12:55 PM 92.5 °F 94.1 °F 64.4 °F 39% 29.92 in 10.0 mi SW 15.0 mph 21.9 mph N/A   Clear
1:15 PM 93.0 °F 95.0 °F 64.6 °F 39% 29.92 in 10.0 mi SSW 15.0 mph 19.6 mph N/A   Clear
1:35 PM 93.0 °F 95.0 °F 64.4 °F 39% 29.90 in 10.0 mi SW 13.8 mph 19.6 mph N/A   Clear
1:55 PM 93.4 °F 94.7 °F 63.9 °F 37% 29.90 in 10.0 mi SSW 13.8 mph 19.6 mph N/A   Clear
2:15 PM 91.9 °F 93.3 °F 64.0 °F 39% 29.89 in 10.0 mi SW 9.2 mph 18.4 mph N/A   Scattered Clouds
2:35 PM 94.1 °F 95.9 °F 63.9 °F 37% 29.88 in 10.0 mi SSW 12.7 mph 18.4 mph N/A   Scattered Clouds
2:55 PM 92.8 °F 94.7 °F 64.8 °F 39% 29.88 in 10.0 mi SSW 11.5 mph 20.7 mph N/A   Scattered Clouds
3:15 PM 91.6 °F 93.5 °F 64.9 °F 41% 29.86 in 10.0 mi SSW 11.5 mph - N/A   Clear
3:35 PM 94.1 °F 97.3 °F 66.2 °F 40% 29.85 in 10.0 mi South 10.4 mph 16.1 mph N/A   Clear
3:55 PM 91.2 °F 94.1 °F 66.4 °F 44% 29.84 in 10.0 mi South 13.8 mph 20.7 mph N/A   Clear
4:15 PM 90.5 °F 93.8 °F 66.9 °F 46% 29.83 in 10.0 mi South 13.8 mph 21.9 mph N/A   Clear
4:35 PM 91.4 °F 94.9 °F 67.6 °F 45% 29.82 in 10.0 mi South 13.8 mph 21.9 mph N/A   Clear
4:55 PM 91.4 °F 94.0 °F 66.2 °F 43% 29.81 in 10.0 mi SSW 13.8 mph 19.6 mph N/A   Clear
5:15 PM 90.7 °F 92.8 °F 65.3 °F 43% 29.80 in 10.0 mi SSW 15.0 mph 24.2 mph N/A   Clear
5:35 PM 89.8 °F 92.5 °F 66.7 °F 46% 29.81 in 10.0 mi SSW 15.0 mph 20.7 mph N/A   Clear
5:55 PM 88.7 °F 91.5 °F 66.9 °F 48% 29.82 in 10.0 mi SSW 10.4 mph 17.3 mph N/A   Clear
6:15 PM 87.4 °F 90.5 °F 67.1 °F 51% 29.83 in 10.0 mi SSW 11.5 mph 17.3 mph N/A   Clear
6:35 PM 86.2 °F 89.4 °F 67.6 °F 54% 29.83 in 10.0 mi South 9.2 mph - N/A   Clear
6:55 PM 85.1 °F 88.2 °F 68.0 °F 56% 29.84 in 10.0 mi SSW 6.9 mph - N/A   Clear
7:15 PM 83.5 °F 86.7 °F 68.2 °F 60% 29.85 in 10.0 mi SSW 6.9 mph - N/A   Clear
7:35 PM 82.4 °F 85.4 °F 68.4 °F 62% 29.85 in 10.0 mi South 4.6 mph - N/A   Clear
7:55 PM 81.9 °F 85.0 °F 68.7 °F 64% 29.85 in 10.0 mi South 6.9 mph - N/A   Scattered Clouds
8:15 PM 81.9 °F 85.2 °F 68.9 °F 65% 29.85 in 10.0 mi South 5.8 mph - N/A   Scattered Clouds
8:35 PM 81.1 °F 84.4 °F 69.1 °F 67% 29.85 in 10.0 mi South 5.8 mph - N/A   Mostly Cloudy
8:55 PM 81.1 °F 83.9 °F 68.0 °F 64% 29.88 in 10.0 mi WNW 20.7 mph 28.8 mph N/A   Overcast
9:15 PM 77.4 °F - 62.1 °F 59% 29.90 in 10.0 mi NW 24.2 mph 31.1 mph N/A   Overcast
9:35 PM 70.9 °F - 65.5 °F 83% 29.91 in 7.0 mi North 12.7 mph 21.9 mph 0.05 in Rain , Thunderstorm Heavy Thunderstorms and Rain
9:55 PM 68.4 °F - 67.1 °F 96% 29.91 in 1.8 mi North 10.4 mph - 0.36 in Rain , Thunderstorm Heavy Thunderstorms and Rain
10:15 PM 68.4 °F - 67.3 °F 96% 29.95 in 1.2 mi West 4.6 mph - 0.41 in Rain , Thunderstorm Heavy Thunderstorms and Rain
10:35 PM 68.4 °F - 67.5 °F 97% 29.97 in 3.0 mi Calm Calm - 0.75 in Rain , Thunderstorm Heavy Thunderstorms and Rain
10:55 PM 68.2 °F - 67.3 °F 97% 29.94 in 4.0 mi Calm Calm - 0.88 in Rain , Thunderstorm Rain
11:15 PM 68.5 °F - 67.6 °F 97% 29.95 in 2.5 mi Calm Calm - 0.06 in Rain , Thunderstorm Thunderstorms and Rain
11:35 PM 68.4 °F - 67.5 °F 97% 29.93 in 5.0 mi SE 4.6 mph - 0.11 in Rain , Thunderstorm Light Thunderstorms and Rain
11:55 PM 68.4 °F - 67.6 °F 98% 29.90 in 5.0 mi ESE 4.6 mph - 0.14 in Rain Rain